Date String (YYYY-MM-DD hh:mm:ss) UTC,Instrument flags,Ambient pressure (hPa),Sample flow (lpm),Bypass flow (lpm),Sample temperature (°C),Ambient temperature (°C),ASC tube jacket temperature (°C),LED temperature (°C),Box temperature (°C),Sample RH (%),Span deviation,Mass concentration (μg/m³),Mass concentration (μg/m³),Mass concentration (μg/m³)
DateTimeUTC,F1_M11,P_M11,Q1_M11,Q2_M11,T1_M11,T2_M11,T3_M11,T4_M11,T5_M11,U1_M11,ZSPAN_M11,X0_M11,X2_M11,X1_M11
2021-09-26 14:00:00,,0826.7,4.98,0.00,30.1,29.0,00.0,39.2,31.7,10.6,0001.2,0013.63,0006.40,0005.64
2021-09-26 14:01:00,,0826.7,5.02,0.00,30.1,29.0,00.0,39.2,31.8,10.5,0001.3,0014.58,0006.43,0005.66
2021-09-26 14:02:00,,0826.7,4.99,0.00,30.1,29.1,00.0,39.2,31.8,10.4,0001.1,0016.00,0006.48,0005.67
2021-09-26 14:03:00,,0826.6,5.01,0.00,30.2,29.1,00.0,39.2,31.9,10.5,0000.9,0016.65,0006.52,0005.68
2021-09-26 14:04:00,,0826.7,4.99,0.00,30.2,29.1,00.0,39.2,31.9,10.3,0001.3,0016.88,0006.58,0005.69
2021-09-26 14:05:00,,0826.7,5.00,0.00,30.1,28.1,00.0,39.2,31.6,10.3,0001.0,0017.02,0006.63,0005.71
2021-09-26 14:06:00,,0826.8,5.00,0.00,30.0,26.4,00.0,39.2,31.1,11.1,0000.5,0017.31,0006.69,0005.73
2021-09-26 14:07:00,,0826.9,5.00,0.00,29.9,26.2,00.0,39.2,31.1,12.1,0000.7,0017.91,0006.68,0005.78
2021-09-26 14:08:00,,0826.6,5.01,0.00,29.8,26.6,00.0,39.1,31.2,12.1,0000.6,0018.31,0006.67,0005.83
2021-09-26 14:09:00,,0826.7,5.00,0.00,29.7,27.1,00.0,39.0,31.2,11.9,0000.8,0018.31,0006.72,0005.86
2021-09-26 14:10:00,,0826.7,5.00,0.00,29.7,27.4,00.0,39.0,31.2,11.8,0001.5,0017.95,0006.77,0005.89
2021-09-26 14:11:00,,0826.6,4.98,0.00,29.7,27.7,00.0,39.0,31.3,12.0,0001.9,0018.34,0006.81,0005.91
2021-09-26 14:12:00,,0826.6,5.00,0.00,29.7,28.0,00.0,39.0,31.4,11.8,0002.2,0018.70,0006.81,0005.90
2021-09-26 14:13:00,,0826.7,5.02,0.00,29.7,28.2,00.0,39.0,31.4,11.5,0001.6,0018.42,0006.85,0005.91
2021-09-26 14:14:00,,0826.6,4.99,0.00,29.8,28.4,00.0,39.0,31.5,11.6,0001.5,0017.36,0006.84,0005.92
2021-09-26 14:15:00,,0826.7,4.99,0.00,29.8,28.5,00.0,38.9,31.5,11.6,0001.6,0016.75,0006.82,0005.94
2021-09-26 14:16:00,,0826.6,5.00,0.00,29.8,28.6,00.0,39.0,31.5,11.4,0002.1,0017.49,0006.82,0005.94
2021-09-26 14:17:00,,0826.7,5.01,0.00,29.8,28.7,00.0,39.0,31.6,11.5,0002.2,0017.38,0006.84,0005.94
2021-09-26 14:18:00,,0826.7,4.99,0.00,29.9,28.8,00.0,39.0,31.6,11.5,0001.9,0016.86,0006.87,0005.93
2021-09-26 14:19:00,,0826.7,5.00,0.00,29.9,28.8,00.0,39.0,31.6,11.5,0002.2,0016.36,0006.81,0005.90
2021-09-26 14:20:00,,0826.7,4.99,0.00,29.9,28.9,00.0,39.0,31.7,11.2,0002.3,0016.24,0006.79,0005.88
2021-09-26 14:21:00,,0826.7,5.01,0.00,29.9,28.9,00.0,39.0,31.7,11.5,0002.3,0015.90,0006.78,0005.87
2021-09-26 14:22:00,,0826.7,4.98,0.00,30.0,29.0,00.0,39.0,31.7,11.4,0002.4,0015.47,0006.73,0005.85
2021-09-26 14:23:00,,0826.6,5.01,0.00,30.0,29.0,00.0,39.0,31.7,11.4,0002.7,0014.94,0006.72,0005.84
2021-09-26 14:24:00,,0826.7,4.99,0.00,30.0,29.1,00.0,39.0,31.8,11.7,0003.0,0013.75,0006.67,0005.83
2021-09-26 14:25:00,,0826.7,4.99,0.00,30.0,29.1,00.0,39.0,31.8,13.2,0003.6,0014.43,0006.68,0005.83
2021-09-26 14:26:00,,0826.7,5.01,0.00,30.1,29.2,00.0,39.1,31.9,13.1,0003.5,0014.60,0006.73,0005.82
2021-09-26 14:27:00,,0826.7,5.01,0.00,30.1,29.2,00.0,39.1,31.9,11.5,0003.2,0014.16,0006.74,0005.83
2021-09-26 14:28:00,,0826.7,4.98,0.00,30.1,29.3,00.0,39.1,31.9,11.2,0002.9,0014.13,0006.76,0005.83
2021-09-26 14:29:00,,0826.7,5.02,0.00,30.2,29.1,00.0,39.1,31.9,11.5,0003.1,0014.31,0006.77,0005.84
2021-09-26 14:30:00,,0826.7,4.99,0.00,30.1,27.4,00.0,39.1,31.5,11.3,0002.6,0014.44,0006.82,0005.85
2021-09-26 14:31:00,,0826.7,5.00,0.00,29.9,26.3,00.0,39.1,31.1,11.7,0002.0,0014.45,0006.84,0005.86
2021-09-26 14:32:00,,0826.7,5.01,0.00,29.8,26.6,00.0,39.1,31.2,12.1,0001.3,0014.47,0006.87,0005.87
2021-09-26 14:33:00,,0826.7,4.99,0.00,29.8,27.0,00.0,39.0,31.3,11.8,0000.9,0014.53,0006.91,0005.89
2021-09-26 14:34:00,,0826.7,5.01,0.00,29.8,27.4,00.0,39.0,31.3,11.7,0000.7,0014.65,0006.96,0005.92
2021-09-26 14:35:00,,0826.7,5.00,0.00,29.8,27.8,00.0,38.9,31.4,11.7,0000.9,0014.46,0007.02,0005.98
2021-09-26 14:36:00,,0826.8,5.00,0.00,29.8,28.1,00.0,38.9,31.4,11.7,0001.2,0013.95,0007.07,0006.01
2021-09-26 14:37:00,,0826.7,4.99,0.00,29.8,28.3,00.0,38.9,31.5,11.9,0001.0,0014.57,0007.14,0006.03
2021-09-26 14:38:00,,0826.7,5.01,0.00,29.8,28.5,00.0,38.9,31.6,11.7,0001.2,0014.94,0007.18,0006.06
2021-09-26 14:39:00,,0826.9,5.00,0.00,29.9,28.6,00.0,38.9,31.6,11.7,0001.2,0015.02,0007.20,0006.10
2021-09-26 14:40:00,,0826.8,4.99,0.00,29.9,28.7,00.0,38.9,31.7,11.6,0001.4,0014.84,0007.27,0006.14
2021-09-26 14:41:00,,0826.7,5.01,0.00,29.9,28.8,00.0,38.9,31.7,11.8,0001.3,0014.53,0007.32,0006.17
2021-09-26 14:42:00,,0826.8,5.00,0.00,30.0,28.9,00.0,39.0,31.8,11.7,0001.7,0014.60,0007.37,0006.22
2021-09-26 14:43:00,,0826.8,5.00,0.00,30.0,29.0,00.0,39.0,31.8,11.8,0001.8,0014.70,0007.39,0006.24
2021-09-26 14:44:00,,0826.7,5.01,0.00,30.0,29.1,00.0,39.0,31.8,11.8,0001.7,0014.63,0007.42,0006.28
2021-09-26 14:45:00,,0826.7,5.00,0.00,30.1,29.2,00.0,39.0,31.9,11.8,0001.7,0014.55,0007.42,0006.30
2021-09-26 14:46:00,,0826.8,5.01,0.00,30.1,29.2,00.0,39.0,31.9,11.8,0002.0,0014.56,0007.42,0006.29
2021-09-26 14:47:00,,0827.0,5.00,0.00,30.1,29.3,00.0,39.1,31.9,12.0,0001.4,0014.61,0007.43,0006.31
2021-09-26 14:48:00,,0827.1,5.00,0.00,30.1,29.3,00.0,39.1,32.0,11.6,0001.1,0013.70,0007.37,0006.32
2021-09-26 14:49:00,,0827.1,4.99,0.00,30.2,28.8,00.0,39.1,31.9,11.7,0000.5,0013.18,0007.35,0006.32
2021-09-26 14:50:00,,0827.0,5.01,0.00,30.0,27.0,00.0,39.1,31.3,11.9,0000.6,0013.11,0007.39,0006.33
2021-09-26 14:51:00,,0826.9,4.99,0.00,29.9,26.3,00.0,39.1,31.1,11.6,0000.8,0013.62,0007.38,0006.33
2021-09-26 14:52:00,,0826.8,5.01,0.00,29.8,26.7,00.0,39.0,31.2,11.5,0001.1,0013.96,0007.41,0006.34
2021-09-26 14:53:00,,0826.8,5.00,0.00,29.7,27.1,00.0,39.0,31.2,11.6,0000.9,0014.24,0007.41,0006.33
2021-09-26 14:54:00,,0826.8,5.01,0.00,29.7,27.5,00.0,38.9,31.3,11.7,0000.9,0014.08,0007.40,0006.36
2021-09-26 14:55:00,,0826.9,4.99,0.00,29.7,27.8,00.0,38.9,31.4,11.6,0001.1,0014.06,0007.41,0006.36
2021-09-26 14:56:00,,0827.0,5.01,0.00,29.8,28.1,00.0,38.9,31.5,11.7,0001.1,0014.44,0007.42,0006.36
2021-09-26 14:57:00,,0827.4,5.00,0.00,29.8,28.3,00.0,38.9,31.5,11.6,0000.9,0014.72,0007.41,0006.36
2021-09-26 14:58:00,,0827.1,5.00,0.00,29.8,28.5,00.0,38.9,31.6,11.4,0001.1,0014.55,0007.39,0006.36
2021-09-26 14:59:00,,0826.8,4.99,0.00,29.9,28.6,00.0,38.9,31.6,11.5,0001.5,0014.49,0007.39,0006.35
